Home   Weather   35°57'N, 87°07'W   Past weeks
Flag for USA

Past Weather in 35°57'N, 87°07'W, USA — Yesterday and Last 2 Weeks

Now
87 °F

Passing clouds.


Feels Like: 85 °F
Forecast: 84 / 65 °F
Wind: 9 mph from Northwest

Location: Nashville International Airport

Current Time: May 20, 2019 at 5:46:33 pm

Latest Report: May 20, 2019 at 4:53 pm


Visibility: 10 mi

Pressure: 29.98 "Hg

Humidity: 31%

Dew Point: 53 °F

Location of 35°57'N, 87°07'WLocation

Past Weather in 35°57'N, 87°07'W — Graph

°F

35°57'N, 87°07'W Temperature Yesterday

Maximum temperature yesterday: 82 °F (at 12:53 pm)
Minimum temperature yesterday: 68 °F (at 11:53 pm)
Average temperature yesterday: 74 °F

High & Low Weather Summary for the Past Weeks

 TemperatureHumidityPressure
High90 °F (May 18, 3:53 pm)93% (May 6, 12:53 am)30.14 "Hg (May 6, 12:53 am)
Low46 °F (May 14, 3:53 am)31% (May 20, 3:53 pm)29.74 "Hg (May 12, 1:53 am)
Average68 °F69%29.96 "Hg
* Reported May 5 3:53 pm — May 20 3:53 pm, 35°57'N, 87°07'W. Weather by CustomWeather, © 2019

Note: Actual official high and low records may vary slightly from our data, if they occured in-between our weather recording intervals... More about our weather records

Advertising

35°57'N, 87°07'W Weather History for the Previous 24 Hours

Scroll right to see more
 ConditionsComfort  
Time TempWeatherWind HumidityBarometerVisibility
3:53 pm
Mon, May 20
87 °FPassing clouds.N/A31%29.99 "Hg10 mi
2:53 pm86 °FPassing clouds.No wind33%30.00 "Hg10 mi
1:53 pm85 °FPassing clouds.3 mph34%30.01 "Hg10 mi
12:53 pm83 °FPassing clouds.6 mph40%30.03 "Hg10 mi
11:53 am82 °FPassing clouds.3 mph43%30.05 "Hg10 mi
10:53 am78 °FScattered clouds.3 mph50%30.05 "Hg10 mi
9:53 am76 °FScattered clouds.3 mph58%30.06 "Hg10 mi
8:53 am74 °FScattered clouds.5 mph64%30.05 "Hg10 mi
7:53 am72 °FScattered clouds.9 mph73%30.04 "Hg10 mi
6:53 am69 °FScattered clouds.7 mph84%30.03 "Hg10 mi
5:53 am67 °FScattered clouds.No wind90%30.01 "Hg8 mi
4:53 am69 °FScattered clouds.6 mph84%29.99 "Hg10 mi
3:53 am69 °FPassing clouds.5 mph87%29.98 "Hg10 mi
2:53 am70 °FPassing clouds.3 mph84%29.95 "Hg10 mi
1:53 am70 °FPassing clouds.7 mph84%29.94 "Hg10 mi
12:53 am70 °FPassing clouds.8 mph84%29.94 "Hg10 mi
11:53 pm
Sun, May 19
68 °FClear.7 mph87%29.94 "Hg10 mi
10:53 pm71 °FPassing clouds.8 mph81%29.93 "Hg10 mi
9:53 pm72 °FPassing clouds.9 mph78%29.93 "Hg10 mi
8:53 pm72 °FPassing clouds.7 mph81%29.91 "Hg10 mi
7:53 pm74 °FPassing clouds.10 mph79%29.90 "Hg10 mi
6:53 pm76 °FPassing clouds.9 mph74%29.89 "Hg10 mi
5:53 pm76 °FPartly sunny.10 mph74%29.88 "Hg10 mi
Weather by CustomWeather, © 2019

See weather overview